Starlink 32075

operational
NORAD ID: 60345 Int'l Des: 2024-136 Owner: SPXS Country: US Constellation: starlink
LEOCIRCULAR

About Starlink 32075

Description loading...

Live Position

Loading 3D Globe...

Upcoming Passes

Altitude History

Altitude vs Time

uPlot chart will show altitude changes over time

Two-Line Element Set

1 60345U 24136S 25306.30476030 .00000641 00000-0 33756-4 0 9992
2 60345 53.1612 307.1929 0001239 96.2649 263.8493 15.30193983 70161
Epoch: Nov 2, 2025 • Age: 43 hours

Current Status

Altitude 486.9 km
Velocity 7.62 km/s
Sub-Earth Point -35.24°S, 67.65°E
Launch Date Aug 2, 2024
Age 1.2 years
Type internet

Technical Details

Classification Payload
Mass 730.00 kg
Dry Mass 700.00 kg
Total Mass 730.00 kg
Length 0.30 m
Diameter 4.10 m
Span 29.00 m
Shape Box + pan
Manufacturer SPXS
Bus Type Starlink V2M
Phase Status In Orbit
Owner/State SPXS/US

Large Constellations

Loading constellations...